This demonstration page uses our WeatherBlox Daily Observations layout. Learn more.

Left ArrowRight Arrow

Hourly Observations for June 30, 2018

Temp ( °F °C ) Dew Point ( °F °C ) Humidity (%) Winds ( mph kmh ) Pressure ( in mb ) Visibility ( mi km ) Precip ( " mm )
12:53 am 00:53 Clear 54 12.2 50 10 87 87 SW 12 19 29.92 1013 10 16 0.00 0.00
1:53 am 01:53 Clear 53 11.7 49 9.4 86 86 SW 10 17 29.94 1014 10 16 0.00 0.00
2:53 am 02:53 Clear 52 11.1 49 9.4 89 89 SW 12 19 29.92 1013 10 16 0.00 0.00
3:53 am 03:53 Clear 52 11.1 49 9.4 89 89 WSW 10 17 29.91 1013 10 16 0.00 0.00
4:53 am 04:53 Clear 50 10 48 8.9 93 93 SW 8 13 29.94 1014 10 16 0.00 0.00
5:53 am 05:53 Sunny 50 10 48 8.9 93 93 SW 10 17 29.98 1015 10 16 0.00 0.00
6:53 am 06:53 Mostly Sunny 53 11.7 49 9.4 86 86 SW 13 20 29.99 1016 10 16 0.00 0.00
7:53 am 07:53 Sunny 58 14.4 49 9.4 72 72 WSW 8 13 29.98 1015 10 16 0.00 0.00
8:53 am 08:53 Partly Cloudy 61 16.1 50 10 67 67 WSW 12 19 29.98 1015 10 16 0.00 0.00
9:53 am 09:53 Sunny 63 17.2 51 10.6 65 65 SW 12 19 29.98 1015 10 16 0.00 0.00
10:53 am 10:53 Sunny 66 18.9 52 11.1 61 61 WSW 10 17 29.98 1015 10 16 0.00 0.00
11:53 am 11:53 Mostly Sunny 69 20.6 50 10 51 51 SW 8 13 29.96 1015 10 16 0.00 0.00
12:53 pm 12:53 Partly Cloudy 71 21.7 49 9.4 46 46 SSW 9 15 29.94 1014 10 16 0.00 0.00
1:53 pm 13:53 Mostly Cloudy 72 22.2 44 6.7 37 37 WSW 14 22 29.92 1013 10 16 0.00 0.00
2:53 pm 14:53 Mostly Sunny 76 24.4 43 6.1 31 31 WSW 17 28 29.90 1012 10 16 0.00 0.00
3:53 pm 15:53 Mostly Sunny 77 25 43 6.1 30 30 WSW 20 31 29.87 1012 10 16 0.00 0.00
4:53 pm 16:53 Mostly Sunny 77 25 43 6.1 30 30 WSW 16 26 29.85 1011 10 16 0.00 0.00
5:53 pm 17:53 Partly Cloudy 77 25 42 5.6 29 29 WSW 17 28 29.83 1010 10 16 0.00 0.00
6:53 pm 18:53 Sunny 74 23.3 42 5.6 32 32 WSW 21 33 29.82 1010 10 16 0.00 0.00
7:53 pm 19:53 Partly Cloudy 72 22.2 43 6.1 35 35 W 16 26 29.81 1010 10 16 0.00 0.00
8:53 pm 20:53 Mostly Sunny 70 21.1 44 6.7 39 39 W 12 19 29.81 1010 10 16 0.00 0.00
9:53 pm 21:53 Clear 67 19.4 44 6.7 44 44 W 13 20 29.81 1010 10 16 0.00 0.00
10:53 pm 22:53 Cloudy 64 17.8 46 7.8 52 52 SW 7 11 29.82 1010 10 16 0.00 0.00
11:53 pm 23:53 Cloudy 63 17.2 47 8.3 56 56 SW 9 15 29.82 1010 10 16 0.00 0.00

Powered by AerisWeather